When you browse on this site, cookies collect data to enhance your experience and personalize the content and advertising you see.
Visit our Privacy Policy to learn more. By continuing to use the site, you agree to this use of cookies and data.
  • In Lithuania
  • List of Countries
  • For 7 days
  • Water Temperature
  • Weather Map
  • Weather Widgets
  • user-avatar
    Login

    Hourly Weather La Condamine

    Today, 22 November, Friday

    Time Temperature Precipitation Wind Pressure Humidity
    00:00 +8°C° 1.2 mm 4 mps 741 mmHg 90%
    01:00 +10°C° 1 mm 4 mps 741 mmHg 90%
    02:00 +10°C° 1 mm 4 mps 741 mmHg 90%
    03:00 +10°C° 1 mm 4 mps 740 mmHg 90%
    04:00 +10°C° 0.1 mm 3 mps 741 mmHg 89%
    05:00 +10°C° 0.1 mm 3 mps 741 mmHg 88%
    06:00 +10°C° 0.1 mm 3 mps 741 mmHg 87%
    07:00 +12°C° 0 mm 2 mps 741 mmHg 85%
    08:00 +12°C° 0 mm 2 mps 741 mmHg 83%
    09:00 +13°C° 0 mm 2 mps 742 mmHg 82%
    10:00 +13°C° 0.1 mm 2 mps 741 mmHg 81%
    11:00 +14°C° 0.1 mm 2 mps 741 mmHg 80%
    12:00 +13°C° 0.1 mm 3 mps 741 mmHg 79%
    13:00 +13°C° 0.2 mm 4 mps 741 mmHg 82%
    14:00 +13°C° 0.2 mm 4 mps 740 mmHg 84%
    15:00 +12°C° 0.2 mm 5 mps 740 mmHg 87%
    16:00 +12°C° 0.6 mm 5 mps 740 mmHg 87%
    17:00 +10°C° 0.6 mm 5 mps 740 mmHg 87%
    18:00 +10°C° 0.6 mm 5 mps 739 mmHg 87%
    19:00 +9°C° 1.6 mm 6 mps 739 mmHg 88%
    20:00 +9°C° 1.6 mm 6 mps 739 mmHg 88%
    21:00 +9°C° 1.6 mm 7 mps 739 mmHg 89%
    22:00 +9°C° 1.3 mm 7 mps 739 mmHg 88%
    23:00 +9°C° 1.3 mm 7 mps 738 mmHg 88%

    Tomorrow, 23 November, Saturday

    Time Temperature Precipitation Wind Pressure Humidity
    00:00 +9°C° 1.3 mm 7 mps 737 mmHg 88%
    01:00 +10°C° 2.7 mm 7 mps 737 mmHg 90%
    02:00 +10°C° 2.7 mm 7 mps 736 mmHg 92%
    03:00 +10°C° 2.7 mm 7 mps 736 mmHg 94%
    04:00 +10°C° 2.7 mm 6 mps 735 mmHg 93%
    05:00 +10°C° 2.7 mm 6 mps 735 mmHg 93%
    06:00 +10°C° 2.7 mm 6 mps 734 mmHg 93%
    07:00 +10°C° 2.2 mm 7 mps 734 mmHg 92%
    08:00 +10°C° 2.2 mm 7 mps 734 mmHg 90%
    09:00 +10°C° 2.2 mm 8 mps 733 mmHg 89%
    10:00 +10°C° 2.9 mm 8 mps 733 mmHg 89%
    11:00 +10°C° 2.9 mm 7 mps 733 mmHg 89%
    12:00 +10°C° 2.9 mm 7 mps 732 mmHg 90%
    13:00 +10°C° 5.5 mm 6 mps 732 mmHg 90%
    14:00 +10°C° 5.5 mm 6 mps 732 mmHg 90%
    15:00 +9°C° 5.5 mm 5 mps 732 mmHg 90%
    16:00 +9°C° 4.3 mm 5 mps 732 mmHg 89%
    17:00 +9°C° 4.3 mm 6 mps 732 mmHg 88%
    18:00 +9°C° 4.3 mm 6 mps 732 mmHg 88%
    19:00 +9°C° 4.6 mm 5 mps 733 mmHg 89%
    20:00 +9°C° 4.6 mm 5 mps 733 mmHg 90%
    21:00 +10°C° 4.6 mm 4 mps 733 mmHg 92%
    22:00 +10°C° 2.1 mm 4 mps 733 mmHg 90%
    23:00 +11°C° 2.1 mm 4 mps 734 mmHg 89%

    Day after tomorrow, 24 November, Sunday

    Time Temperature Precipitation Wind Pressure Humidity
    00:00 +11°C° 2.1 mm 4 mps 734 mmHg 87%
    01:00 +11°C° 0.5 mm 4 mps 734 mmHg 87%
    02:00 +11°C° 0.5 mm 4 mps 735 mmHg 86%
    03:00 +11°C° 0.5 mm 4 mps 735 mmHg 86%
    04:00 +11°C° 0.8 mm 4 mps 735 mmHg 87%
    05:00 +10°C° 0.8 mm 5 mps 736 mmHg 87%
    06:00 +10°C° 0.8 mm 5 mps 736 mmHg 88%
    07:00 +10°C° 2 mm 5 mps 737 mmHg 87%
    08:00 +10°C° 2 mm 5 mps 737 mmHg 86%
    09:00 +10°C° 2 mm 6 mps 738 mmHg 85%
    10:00 +12°C° 0.6 mm 5 mps 738 mmHg 83%
    11:00 +13°C° 0.6 mm 5 mps 739 mmHg 80%
    12:00 +14°C° 0.6 mm 5 mps 739 mmHg 78%
    13:00 +13°C° 0.1 mm 5 mps 739 mmHg 79%
    14:00 +13°C° 0.1 mm 4 mps 739 mmHg 80%
    15:00 +13°C° 0.1 mm 4 mps 739 mmHg 81%
    16:00 +12°C° 0 mm 4 mps 740 mmHg 80%
    17:00 +12°C° 0 mm 4 mps 740 mmHg 80%
    18:00 +11°C° 0 mm 4 mps 741 mmHg 80%
    19:00 +12°C° 0 mm 4 mps 741 mmHg 79%
    20:00 +12°C° 0 mm 4 mps 741 mmHg 79%
    21:00 +12°C° 0 mm 3 mps 742 mmHg 79%
    22:00 +12°C° 0 mm 3 mps 742 mmHg 79%
    23:00 +12°C° 0 mm 4 mps 742 mmHg 79%

    25 November, Monday

    Time Temperature Precipitation Wind Pressure Humidity
    00:00 +12°C° 0 mm 4 mps 742 mmHg 79%
    01:00 +12°C° 0 mm 3 mps 742 mmHg 79%
    02:00 +12°C° 0 mm 3 mps 742 mmHg 78%
    03:00 +11°C° 0 mm 3 mps 742 mmHg 77%
    04:00 +12°C° 0 mm 2 mps 742 mmHg 76%
    05:00 +13°C° 0 mm 2 mps 742 mmHg 74%
    06:00 +13°C° 0 mm 2 mps 742 mmHg 73%
    07:00 +14°C° 0 mm 2 mps 742 mmHg 72%
    08:00 +15°C° 0 mm 2 mps 743 mmHg 72%
    09:00 +15°C° 0 mm 1 mps 743 mmHg 72%
    10:00 +16°C° 0 mm 1 mps 743 mmHg 69%
    11:00 +17°C° 0 mm 2 mps 743 mmHg 66%
    12:00 +18°C° 0 mm 2 mps 743 mmHg 63%
    13:00 +17°C° 0 mm 2 mps 743 mmHg 67%
    14:00 +17°C° 0 mm 2 mps 742 mmHg 71%
    15:00 +16°C° 0 mm 2 mps 742 mmHg 76%
    16:00 +15°C° 0 mm 2 mps 742 mmHg 74%
    17:00 +14°C° 0 mm 2 mps 743 mmHg 73%
    18:00 +13°C° 0 mm 2 mps 743 mmHg 71%
    19:00 +12°C° 0 mm 3 mps 743 mmHg 70%
    20:00 +12°C° 0 mm 3 mps 743 mmHg 69%
    21:00 +12°C° 0 mm 3 mps 743 mmHg 68%
    22:00 +12°C° 0 mm 3 mps 743 mmHg 68%
    23:00 +12°C° 0 mm 3 mps 743 mmHg 68%

    26 November, Tuesday

    Time Temperature Precipitation Wind Pressure Humidity
    00:00 +11°C° 0 mm 3 mps 742 mmHg 68%
    01:00 +12°C° 0 mm 2 mps 742 mmHg 68%
    02:00 +12°C° 0 mm 2 mps 742 mmHg 68%
    03:00 +12°C° 0 mm 2 mps 742 mmHg 68%
    04:00 +12°C° 0 mm 2 mps 742 mmHg 68%
    05:00 +10°C° 0 mm 2 mps 742 mmHg 68%
    06:00 +10°C° 0 mm 2 mps 742 mmHg 67%
    07:00 +12°C° 0 mm 1 mps 743 mmHg 67%
    08:00 +14°C° 0 mm 1 mps 743 mmHg 66%
    09:00 +15°C° 0 mm 1 mps 743 mmHg 65%
    10:00 +15°C° 0 mm 1 mps 743 mmHg 67%
    11:00 +16°C° 0 mm 2 mps 743 mmHg 68%
    12:00 +16°C° 0 mm 2 mps 743 mmHg 70%
    13:00 +16°C° 0 mm 2 mps 743 mmHg 75%
    14:00 +14°C° 0 mm 3 mps 743 mmHg 79%
    15:00 +13°C° 0 mm 3 mps 743 mmHg 84%
    16:00 +13°C° 0 mm 3 mps 743 mmHg 84%
    17:00 +13°C° 0 mm 2 mps 743 mmHg 84%
    18:00 +12°C° 0 mm 2 mps 743 mmHg 83%
    19:00 +12°C° 0 mm 2 mps 743 mmHg 82%
    20:00 +11°C° 0 mm 3 mps 743 mmHg 82%
    21:00 +11°C° 0 mm 3 mps 743 mmHg 81%
    22:00 +11°C° 0 mm 3 mps 743 mmHg 79%
    23:00 +11°C° 0 mm 3 mps 743 mmHg 77%

    27 November, Wednesday

    Time Temperature Precipitation Wind Pressure Humidity
    00:00 +11°C° 0 mm 3 mps 743 mmHg 75%
    01:00 +12°C° 0 mm 2 mps 742 mmHg 75%
    02:00 +12°C° 0 mm 2 mps 742 mmHg 75%
    03:00 +12°C° 0 mm 2 mps 742 mmHg 75%
    04:00 +12°C° 0 mm 2 mps 741 mmHg 77%
    05:00 +12°C° 0 mm 2 mps 741 mmHg 78%
    06:00 +13°C° 0 mm 1 mps 741 mmHg 80%
    07:00 +13°C° 0.1 mm 2 mps 741 mmHg 80%
    08:00 +13°C° 0.1 mm 2 mps 741 mmHg 81%
    09:00 +14°C° 0.1 mm 2 mps 741 mmHg 82%
    10:00 +15°C° 0.1 mm 2 mps 741 mmHg 81%
    11:00 +15°C° 0.1 mm 2 mps 740 mmHg 81%
    12:00 +16°C° 0.1 mm 1 mps 740 mmHg 80%
    13:00 +16°C° 0 mm 2 mps 740 mmHg 82%
    14:00 +16°C° 0 mm 2 mps 740 mmHg 84%
    15:00 +15°C° 0 mm 2 mps 740 mmHg 87%
    16:00 +15°C° 0 mm 2 mps 740 mmHg 86%
    17:00 +14°C° 0 mm 2 mps 740 mmHg 86%
    18:00 +13°C° 0 mm 3 mps 740 mmHg 86%
    19:00 +13°C° 0 mm 3 mps 741 mmHg 81%
    20:00 +12°C° 0 mm 3 mps 741 mmHg 77%
    21:00 +12°C° 0 mm 3 mps 741 mmHg 72%
    22:00 +12°C° 0 mm 4 mps 741 mmHg 70%
    23:00 +12°C° 0 mm 4 mps 742 mmHg 69%
    Show more